SHT2K EGLL-EGCC

Flight info

Callsign SHT2K
Flight time N/A
Altitude 18000
Route ULTIB T420 ELVOS
Aircraft A320/M-SDE3FGHIRWY/LB1

Departure

Time 2026-05-06 13:42
Airport London Heathrow Airport (EGLL)

Arrival

Time N/A
Airport Manchester Airport (EGCC)
Time Latitude Longitude Altitude Speed Heading
2026-05-06 13:19 51.46926 -0.48718 89 ft 0 kts 360°
2026-05-06 13:36 51.46922 -0.48718 87 ft 2 kts 359°
2026-05-06 13:36 51.46906 -0.48716 88 ft 2 kts 351°
2026-05-06 13:36 51.46890 -0.48709 87 ft 2 kts 327°
2026-05-06 13:36 51.46878 -0.48690 88 ft 2 kts 283°
2026-05-06 13:37 51.46876 -0.48669 87 ft 1 kts 269°
2026-05-06 13:37 51.46876 -0.48666 87 ft 0 kts 269°
2026-05-06 13:39 51.46867 -0.48735 88 ft 13 kts 232°
2026-05-06 13:39 51.46788 -0.48753 87 ft 12 kts 179°
2026-05-06 13:40 51.46698 -0.48751 89 ft 14 kts 179°
2026-05-06 13:40 51.46621 -0.48759 90 ft 9 kts 195°
2026-05-06 13:40 51.46601 -0.48770 90 ft 0 kts 199°
2026-05-06 13:41 51.46591 -0.48776 89 ft 7 kts 198°
2026-05-06 13:41 51.46533 -0.48790 87 ft 9 kts 170°
2026-05-06 13:41 51.46481 -0.48709 91 ft 13 kts 112°
2026-05-06 13:42 51.46481 -0.48245 89 ft 84 kts 89°
2026-05-06 13:42 51.46486 -0.46904 91 ft 153 kts 88°
2026-05-06 13:42 51.46469 -0.45148 789 ft 158 kts 87°
2026-05-06 13:42 51.46452 -0.43382 1527 ft 166 kts 85°
2026-05-06 13:43 51.46455 -0.41381 1821 ft 191 kts 86°
2026-05-06 13:43 51.46452 -0.39126 2185 ft 214 kts 87°
2026-05-06 13:43 51.46450 -0.36601 2629 ft 239 kts 86°
2026-05-06 13:43 51.46444 -0.33825 3230 ft 255 kts 87°